GW4352 Weather Reports


Display with metric or nautical units.
time (UTC)temp
F
wind
direction
speed
MPH
gust
MPH
rain 1hr
in
rain 24hr
in
rain mn
in
humidity
%
barometer
mb
20260506061025 47 36 3.0 11.0 0.00 0.00 0.00 81 1010.2
20260506051041 47 20 5.0 10.0 0.00 0.00 0.00 83 1010.0
20260506045106 47 36 2.0 6.0 0.00 0.00 0.00 84 1010.1
20260506044019 47 33 3.0 7.0 0.00 0.00 0.00 84 1009.8
20260506043026 48 46 2.0 6.0 0.00 0.00 0.00 84 1009.7
20260506042034 48 27 2.0 4.0 0.00 0.00 0.00 83 1009.7
20260506041029 48 37 4.0 9.0 0.00 0.00 0.00 82 1009.9
20260506040018 48 28 3.0 6.0 0.00 0.00 0.00 82 1009.6
20260506035042 49 33 2.0 8.0 0.00 0.00 0.00 81 1009.6
20260506034018 49 32 5.0 11.0 0.00 0.00 0.00 81 1009.7
20260506033025 49 47 3.0 8.0 0.00 0.00 0.00 82 1009.8
20260506032018 49 24 4.0 7.0 0.00 0.00 0.00 82 1009.8
20260506031123 50 35 3.0 10.0 0.00 0.00 0.00 83 1009.7
20260506030054 50 33 3.0 7.0 0.00 0.00 0.00 83 1009.7
20260506025025 50 37 3.0 7.0 0.00 0.00 0.00 82 1009.8
20260506024018 50 40 4.0 11.0 0.00 0.00 0.00 82 1009.7
20260506023042 50 39 4.0 10.0 0.00 0.00 0.00 81 1009.6
20260506022018 50 35 2.0 4.0 0.00 0.00 0.00 79 1009.7
20260506021026 50 31 3.0 8.0 0.00 0.00 0.00 79 1009.7
20260506020021 50 42 3.0 8.0 0.00 0.00 0.00 79 1009.9
20260506015026 51 36 2.0 6.0 0.00 0.00 0.00 78 1010.1
20260506014054 51 40 4.0 9.0 0.00 0.00 0.00 78 1010.0
20260506013047 51 36 3.0 9.0 0.00 0.00 0.00 78 1010.0
20260506012017 51 34 4.0 13.0 0.00 0.00 0.00 77 1010.1
20260506011041 51 39 3.0 8.0 0.00 0.00 0.00 77 1010.1
20260506010019 51 41 3.0 11.0 0.00 0.00 0.00 77 1010.0
20260506005047 52 40 2.0 4.0 0.00 0.00 0.00 76 1010.0
20260506004019 52 43 2.0 8.0 0.00 0.00 0.00 75 1010.2
20260506003028 52 53 4.0 10.0 0.00 0.00 0.00 75 1010.0
20260506002036 52 50 4.0 9.0 0.00 0.00 0.00 75 1010.0
20260506001027 52 49 6.0 13.0 0.00 0.00 0.00 78 1010.0
20260506000027 53 39 2.0 7.0 0.00 0.00 0.00 78 1010.1
20260505235027 53 36 3.0 7.0 0.00 0.00 0.00 78 1010.2
20260505234020 53 47 3.0 9.0 0.00 0.00 0.00 77 1010.2
20260505233026 53 40 4.0 14.0 0.00 0.00 0.00 77 1010.1
20260505232040 53 53 4.0 9.0 0.00 0.00 0.00 76 1010.2
20260505231027 53 41 4.0 13.0 0.00 0.00 0.00 74 1010.1
20260505230033 53 39 3.0 8.0 0.00 0.00 0.00 74 1010.3
20260505225028 53 61 2.0 4.0 0.00 0.00 0.00 74 1010.1
20260505224017 53 72 2.0 6.0 0.00 0.00 0.00 73 1010.0
20260505223041 54 59 2.0 4.0 0.00 0.00 0.00 73 1010.0
20260505222042 54 71 1.0 3.0 0.00 0.00 0.00 72 1010.1
20260505221025 54 92 1.0 6.0 0.00 0.00 0.00 71 1010.0
20260505220019 54 78 2.0 4.0 0.00 0.00 0.00 71 1009.8
20260505215025 55 87 2.0 6.0 0.00 0.00 0.00 70 1010.1
20260505214033 55 89 4.0 8.0 0.00 0.00 0.00 70 1009.9
20260505213027 56 76 3.0 7.0 0.00 0.00 0.00 71 1009.8
20260505212017 56 41 2.0 6.0 0.00 0.00 0.00 71 1009.7
20260505211043 56 45 3.0 6.0 0.00 0.00 0.00 71 1009.6
20260505210019 56 22 4.0 9.0 0.00 0.00 0.00 71 1009.7
20260505205047 57 45 4.0 10.0 0.00 0.00 0.00 71 1009.7
20260505204033 57 43 3.0 7.0 0.00 0.00 0.00 70 1009.5
20260505203027 57 26 4.0 8.0 0.00 0.00 0.00 70 1009.6
20260505202019 57 34 2.0 6.0 0.00 0.00 0.00 70 1009.3
20260505201047 57 3 2.0 7.0 0.00 0.00 0.00 70 1009.5
20260505200018 57 8 1.0 4.0 0.00 0.00 0.00 70 1009.3
20260505195041 57 51 1.0 3.0 0.00 0.00 0.00 70 1009.3
20260505194019 57 18 1.0 3.0 0.00 0.00 0.00 70 1008.9
20260505193027 58 10 1.0 4.0 0.00 0.00 0.00 69 1009.0
20260505192021 58 349 2.0 7.0 0.00 0.00 0.00 69 1009.1
20260505191048 58 5 2.0 6.0 0.00 0.00 0.00 68 1008.9
20260505190033 58 340 3.0 7.0 0.00 0.00 0.00 68 1008.8
20260505185027 58 10 2.0 7.0 0.00 0.00 0.00 68 1009.0
20260505184017 58 16 1.0 4.0 0.00 0.00 0.00 68 1008.9
20260505183041 58 342 2.0 7.0 0.00 0.00 0.00 68 1008.7
20260505182018 58 358 2.0 6.0 0.00 0.00 0.00 68 1009.0
20260505181032 58 346 2.0 4.0 0.00 0.00 0.00 69 1008.9
20260505180020 59 342 2.0 6.0 0.00 0.00 0.00 68 1008.9
20260505175026 59 340 2.0 8.0 0.00 0.00 0.00 68 1008.9
20260505174033 59 334 1.0 4.0 0.00 0.00 0.00 68 1009.0
20260505173027 59 358 2.0 7.0 0.00 0.00 0.00 67 1008.9
20260505172017 59 357 3.0 8.0 0.00 0.00 0.00 67 1008.9
20260505171042 59 343 3.0 9.0 0.00 0.00 0.00 66 1009.1
20260505170018 60 350 4.0 9.0 0.00 0.00 0.00 63 1009.0
20260505165025 60 337 3.0 7.0 0.00 0.00 0.00 62 1009.2
20260505164019 60 343 2.0 6.0 0.00 0.00 0.00 62 1009.3
20260505163026 60 343 2.0 6.0 0.00 0.00 0.00 62 1009.1
20260505162035 60 330 3.0 9.0 0.00 0.00 0.00 61 1009.1
20260505161027 60 344 2.0 6.0 0.00 0.00 0.00 62 1009.2
20260505153025 60 23 2.0 6.0 0.00 0.00 0.00 62 1009.1
20260505152018 60 21 3.0 9.0 0.00 0.00 0.00 61 1009.2
20260505151027 60 20 3.0 7.0 0.00 0.00 0.00 62 1009.4
20260505125026 60 38 4.0 8.0 0.00 0.00 0.00 62 1009.9
20260505124017 60 61 7.0 10.0 0.00 0.00 0.00 62 1009.6
20260505123046 60 30 5.0 9.0 0.00 0.00 0.00 65 1009.9
20260505122034 59 35 3.0 8.0 0.00 0.00 0.00 66 1009.9
20260505121026 58 50 2.0 7.0 0.00 0.00 0.00 68 1009.8
20260505120017 59 48 4.0 9.0 0.00 0.00 0.00 67 1009.7
20260505115041 61 42 5.0 10.0 0.00 0.00 0.00 65 1009.7
20260505114019 59 45 3.0 8.0 0.00 0.00 0.00 69 1009.8
20260505113044 59 32 6.0 14.0 0.00 0.00 0.00 69 1009.9
20260505112041 59 350 4.0 8.0 0.00 0.00 0.00 70 1009.9
20260505111026 58 5 3.0 6.0 0.00 0.00 0.00 71 1010.0
20260505102018 55 24 4.0 10.0 0.00 0.00 0.00 78 1010.3
20260505101025 54 32 4.0 8.0 0.00 0.00 0.00 78 1010.4
20260505100018 55 42 4.0 11.0 0.00 0.00 0.00 79 1010.4
20260505095027 54 42 4.0 9.0 0.00 0.00 0.00 79 1010.5
20260505094032 55 34 4.0 10.0 0.00 0.00 0.00 78 1010.5
20260505093027 55 4 3.0 9.0 0.00 0.00 0.00 77 1010.6
20260505092019 55 31 4.0 8.0 0.00 0.00 0.00 77 1010.4
20260505091041 55 26 3.0 8.0 0.00 0.00 0.00 78 1010.4
20260505090018 54 37 3.0 8.0 0.00 0.00 0.00 78 1010.5
20260505085025 54 32 4.0 8.0 0.00 0.00 0.00 79 1010.6
20260505084101 54 40 6.0 13.0 0.00 0.00 0.00 80 1010.5
20260505083026 54 1 4.0 10.0 0.00 0.00 0.00 83 1010.8
20260505082033 54 360 4.0 9.0 0.00 0.00 0.00 85 1010.7
20260505081041 54 10 4.0 10.0 0.00 0.00 0.00 85 1010.6
20260505080019 54 340 2.0 6.0 0.00 0.00 0.00 86 1010.8
20260505075027 54 10 3.0 11.0 0.00 0.00 0.00 86 1010.6
20260505074018 54 36 4.0 9.0 0.00 0.00 0.00 86 1010.6
20260505073048 54 33 3.0 7.0 0.00 0.00 0.00 86 1010.5
20260505072019 54 13 2.0 7.0 0.00 0.00 0.00 87 1010.3
20260505071026 53 34 4.0 8.0 0.00 0.00 0.00 87 1010.6
20260505070053 53 41 3.0 6.0 0.00 0.00 0.00 88 1010.8
20260505065028 53 38 2.0 6.0 0.00 0.00 0.00 89 1010.8
20260505064017 53 36 1.0 4.0 0.00 0.00 0.00 91 1010.8
20260505063041 53 37 2.0 3.0 0.00 0.00 0.00 92 1010.8
20260505062044 53 42 2.0 6.0 0.00 0.00 0.00 92 1010.8